Location: Unspecified
(0.0000°N, 0.0000°E)
Time: 06:08:39
(UTC+00:00)

MUNIN - Visible Passes

Search period start: 08 June 2023 00:00
Search period end: 18 June 2023 00:00
Orbit: 703 x 1787 km, 95.4° (Epoch: 07 June)

Date Brightness Start Highest point End Pass type
(mag) Time Alt. Az. Time Alt. Az. Time Alt. Az.
08 Jun 11.6 23:02:31 11° NNE 23:02:31 11° NNE 23:02:54 10° N visible
09 Jun 11.6 22:58:32 11° NNE 22:58:32 11° NNE 22:58:58 10° NNE visible
10 Jun 11.6 22:54:35 12° NNE 22:54:35 12° NNE 22:55:03 10° NNE visible
11 Jun 11.6 22:50:38 12° NNE 22:50:38 12° NNE 22:51:06 10° NNE visible
12 Jun 11.6 22:46:40 12° NNE 22:46:40 12° NNE 22:47:09 10° NNE visible
13 Jun 11.6 22:42:43 12° NNE 22:42:43 12° NNE 22:43:12 10° NNE visible
14 Jun 11.6 22:38:46 11° NNE 22:38:46 11° NNE 22:39:14 10° NNE visible
15 Jun 11.6 22:34:49 11° NNE 22:34:49 11° NNE 22:35:15 10° NNE visible
16 Jun 11.6 22:30:53 11° NNE 22:30:53 11° NNE 22:31:16 10° NNE visible
17 Jun 11.6 22:26:56 11° NNE 22:26:56 11° NNE 22:27:17 10° NNE visible
